カタログに戻る

STARLINK-2081

運用中通信VLEO
NORAD 47366·PAYLOAD·🇺🇸 United States

打ち上げ Jan 20, 2021 から Cape Canaveral Space Force Station

Loading…

次のパス (今後24時間)

TLE

最新Source: CelesTrak SupGP

元期: Sep 14, 2026, 21:53 UTC

1 47366C 21005T   26257.91229167  .00046902  00000+0  15090-2 0  2577
2 47366  53.1590 261.9901 0001214 103.5033  28.7616 15.31662003    10

AllMySatでSTARLINK-2081をリアルタイム追跡

Download on the App Store